QPF
0.00 0.00 0.01 0.01 0.01 0.02 0.02 0.01 0.01 0.01 0.01 0.03 0.04 0.04 0.02 0.02 0.02 0.02 0.02 0.02 0.03 0.03 0.04 0.03 0.04 0.05 0.04 0.03 0.02 0.01 0.01 0.01 0.01 0.00 0.01 0.01 0.01 0.01 0.00 0.00 0.00 0.00 0.00
0.00 0.00 0.00 0.01 0.01 0.01 0.02 0.01 0.01 0.01 0.01 0.02 0.04 0.05 0.04 0.02 0.02 0.02 0.02 0.02 0.02 0.02 0.02 0.03 0.03 0.03 0.04 0.04 0.03 0.02 0.02 0.01 0.01 0.00 0.01 0.01 0.02 0.02 0.01 0.01 0.00 0.00 0.00
0.00 0.00 0.00 0.01 0.01 0.01 0.01 0.01 0.01 0.01 0.01 0.02 0.04 0.05 0.05 0.04 0.02 0.01 0.02 0.02 0.02 0.03 0.03 0.03 0.02 0.03 0.04 0.05 0.05 0.04 0.03 0.03 0.02 0.01 0.01 0.01 0.01 0.01 0.01 0.01 0.01 0.00 0.00
0.00 0.00 0.00 0.00 0.01 0.01 0.01 0.01 0.01 0.01 0.01 0.02 0.04 0.05 0.05 0.04 0.02 0.01 0.01 0.01 0.02 0.02 0.03 0.04 0.03 0.03 0.03 0.04 0.06 0.07 0.05 0.04 0.03 0.01 0.01 0.01 0.01 0.01 0.01 0.01 0.01 0.01 0.00
0.00 0.00 0.00 0.00 0.00 0.01 0.01 0.01 0.02 0.02 0.01 0.02 0.03 0.05 0.05 0.04 0.04 0.02 0.01 0.01 0.01 0.02 0.02 0.03 0.03 0.03 0.02 0.02 0.04 0.06 0.06 0.06 0.04 0.02 0.01 0.01 0.01 0.01 0.01 0.01 0.01 0.01 0.00
0.00 0.00 0.00 0.00 0.00 0.00 0.01 0.01 0.01 0.02 0.01 0.01 0.02 0.04 0.06 0.05 0.04 0.03 0.02 0.02 0.01 0.01 0.01 0.02 0.02 0.02 0.02 0.01 0.02 0.03 0.04 0.04 0.04 0.03 0.03 0.02 0.01 0.01 0.01 0.01 0.01 0.01 0.00
0.00 0.00 0.00 0.00 0.00 0.00 0.01 0.01 0.01 0.01 0.02 0.01 0.01 0.02 0.04 0.06 0.04 0.03 0.02 0.02 0.01 0.01 0.01 0.01 0.01 0.02 0.02 0.02 0.02 0.03 0.03 0.03 0.03 0.02 0.02 0.02 0.02 0.02 0.02 0.02 0.01 0.01 0.01
0.00 0.00 0.00 0.00 0.00 0.00 0.01 0.01 0.01 0.01 0.01 0.02 0.01 0.02 0.03 0.05 0.06 0.04 0.02 0.01 0.01 0.01 0.01 0.01 0.01 0.01 0.01 0.01 0.02 0.03 0.03 0.03 0.03 0.02 0.01 0.01 0.02 0.02 0.02 0.02 0.02 0.02 0.01
0.00 0.00 0.00 0.00 0.00 0.00 0.01 0.01 0.01 0.01 0.01 0.02 0.02 0.02 0.02 0.04 0.06 0.05 0.03 0.02 0.01 0.00 0.00 0.00 0.00 0.00 0.00 0.01 0.01 0.01 0.01 0.02 0.02 0.02 0.01 0.01 0.01 0.01 0.02 0.02 0.02 0.03 0.02
0.00 0.00 0.00 0.00 0.01 0.01 0.01 0.01 0.01 0.01 0.01 0.02 0.02 0.03 0.03 0.03 0.05 0.06 0.05 0.03 0.01 0.00 0.00 0.01 0.00 0.00 0.00 0.00 0.01 0.01 0.01 0.01 0.02 0.02 0.02 0.01 0.01 0.01 0.02 0.02 0.02 0.03 0.02
0.01 0.01 0.01 0.01 0.01 0.01 0.01 0.02 0.01 0.01 0.01 0.01 0.01 0.02 0.03 0.04 0.04 0.05 0.05 0.05 0.03 0.01 0.01 0.01 0.01 0.01 0.01 0.01 0.01 0.01 0.01 0.01 0.01 0.02 0.02 0.02 0.02 0.02 0.02 0.02 0.02 0.03 0.03
0.02 0.02 0.01 0.01 0.01 0.01 0.02 0.02 0.02 0.01 0.01 0.01 0.01 0.01 0.02 0.03 0.04 0.05 0.04 0.05 0.05 0.03 0.01 0.01 0.00 0.01 0.01 0.01 0.02 0.02 0.02 0.01 0.01 0.01 0.01 0.01 0.02 0.02 0.02 0.03 0.02 0.02 0.03
0.02 0.02 0.02 0.01 0.01 0.01 0.02 0.02 0.02 0.02 0.02 0.02 0.01 0.01 0.02 0.02 0.03 0.04 0.04 0.04 0.04 0.05 0.04 0.02 0.01 0.00 0.01 0.01 0.01 0.02 0.02 0.02 0.02 0.02 0.02 0.01 0.01 0.01 0.02 0.02 0.02 0.02 0.02
0.01 0.02 0.02 0.02 0.01 0.01 0.01 0.01 0.02 0.03 0.03 0.03 0.02 0.02 0.02 0.02 0.02 0.03 0.04 0.03 0.03 0.05 0.05 0.04 0.02 0.01 0.01 0.01 0.01 0.02 0.02 0.02 0.02 0.02 0.02 0.03 0.03 0.03 0.03 0.03 0.03 0.03 0.04
0.02 0.02 0.02 0.02 0.02 0.02 0.01 0.01 0.01 0.02 0.03 0.04 0.04 0.03 0.02 0.02 0.02 0.03 0.03 0.03 0.03 0.03 0.05 0.05 0.04 0.02 0.02 0.02 0.02 0.02 0.02 0.02 0.02 0.01 0.01 0.02 0.03 0.04 0.04 0.04 0.04 0.04 0.05
0.02 0.02 0.02 0.02 0.02 0.02 0.02 0.01 0.01 0.02 0.03 0.04 0.04 0.04 0.03 0.03 0.03 0.03 0.03 0.04 0.03 0.03 0.04 0.04 0.04 0.04 0.03 0.03 0.03 0.03 0.02 0.02 0.01 0.01 0.01 0.01 0.02 0.02 0.03 0.03 0.04 0.04 0.05
0.02 0.02 0.02 0.02 0.02 0.02 0.02 0.02 0.02 0.02 0.02 0.02 0.03 0.03 0.04 0.04 0.03 0.03 0.03 0.03 0.04 0.04 0.03 0.04 0.04 0.04 0.04 0.04 0.04 0.03 0.03 0.02 0.01 0.01 0.01 0.00 0.01 0.01 0.01 0.01 0.02 0.02 0.03
0.01 0.01 0.01 0.01 0.02 0.02 0.02 0.02 0.02 0.02 0.01 0.01 0.01 0.02 0.02 0.03 0.03 0.03 0.02 0.03 0.04 0.04 0.04 0.04 0.04 0.04 0.04 0.04 0.04 0.04 0.03 0.02 0.02 0.01 0.01 0.01 0.00 0.00 0.01 0.01 0.01 0.01 0.01
0.01 0.01 0.01 0.01 0.01 0.01 0.01 0.01 0.01 0.01 0.01 0.01 0.01 0.01 0.01 0.02 0.02 0.03 0.03 0.03 0.04 0.04 0.04 0.04 0.04 0.04 0.04 0.04 0.05 0.05 0.04 0.03 0.03 0.02 0.02 0.01 0.01 0.01 0.01 0.01 0.01 0.01 0.01
0.01 0.01 0.01 0.01 0.00 0.00 0.00 0.01 0.01 0.01 0.01 0.01 0.01 0.01 0.01 0.01 0.02 0.03 0.03 0.03 0.04 0.05 0.04 0.04 0.04 0.04 0.04 0.04 0.05 0.05 0.05 0.05 0.04 0.03 0.03 0.03 0.02 0.02 0.02 0.01 0.01 0.01 0.01
0.01 0.01 0.01 0.01 0.01 0.00 0.00 0.00 0.01 0.01 0.01 0.01 0.01 0.01 0.01 0.01 0.02 0.02 0.03 0.03 0.03 0.04 0.04 0.04 0.04 0.04 0.04 0.04 0.04 0.05 0.06 0.06 0.06 0.05 0.04 0.04 0.04 0.04 0.03 0.03 0.02 0.02 0.01
0.01 0.01 0.01 0.01 0.01 0.01 0.01 0.01 0.01 0.01 0.01 0.01 0.01 0.01 0.01 0.01 0.02 0.02 0.02 0.03 0.03 0.03 0.02 0.02 0.03 0.03 0.03 0.03 0.04 0.05 0.06 0.06 0.06 0.06 0.05 0.03 0.03 0.03 0.03 0.03 0.02 0.02 0.02
0.01 0.01 0.01 0.01 0.01 0.01 0.01 0.01 0.01 0.01 0.01 0.01 0.01 0.01 0.01 0.01 0.01 0.02 0.02 0.02 0.03 0.03 0.02 0.02 0.02 0.02 0.02 0.03 0.03 0.03 0.04 0.04 0.05 0.05 0.04 0.04 0.03 0.03 0.02 0.02 0.02 0.02 0.02
0.01 0.01 0.01 0.01 0.01 0.01 0.01 0.01 0.01 0.01 0.01 0.01 0.01 0.01 0.01 0.01 0.01 0.01 0.02 0.02 0.02 0.02 0.02 0.02 0.01 0.01 0.02 0.02 0.02 0.02 0.02 0.03 0.03 0.04 0.04 0.03 0.03 0.03 0.03 0.03 0.02 0.02 0.02
0.01 0.01 0.01 0.01 0.01 0.01 0.01 0.01 0.01 0.01 0.01 0.01 0.01 0.01 0.01 0.01 0.01 0.01 0.01 0.01 0.02 0.02 0.02 0.02 0.02 0.02 0.02 0.02 0.03 0.03 0.03 0.03 0.03 0.03 0.04 0.03 0.03 0.03 0.03 0.02 0.02 0.02 0.02
0.01 0.01 0.01 0.01 0.01 0.01 0.01 0.01 0.01 0.01 0.01 0.01 0.01 0.01 0.01 0.01 0.01 0.01 0.01 0.01 0.01 0.01 0.02 0.02 0.02 0.03 0.02 0.02 0.03 0.03 0.03 0.03 0.03 0.03 0.03 0.03 0.02 0.02 0.02 0.02 0.02 0.02 0.02
MSLP
1013.56 1014.16 1014.80 1015.45 1016.12 1016.81 1017.54 1018.33 1019.17 1020.05 1020.96 1021.85 1022.70 1023.47 1024.14 1024.72 1025.21 1025.63 1026.00 1026.33 1026.66 1026.98 1027.29 1027.61 1027.91 1028.21 1028.51 1028.80 1029.10 1029.41 1029.73 1030.06 1030.39 1030.70 1030.98 1031.23 1031.41 1031.54 1031.61 1031.62 1031.59 1031.52 1031.41
1013.03 1013.58 1014.16 1014.76 1015.38 1016.04 1016.77 1017.57 1018.46 1019.42 1020.41 1021.40 1022.34 1023.20 1023.95 1024.58 1025.11 1025.56 1025.94 1026.29 1026.63 1026.97 1027.30 1027.64 1027.96 1028.27 1028.57 1028.86 1029.15 1029.45 1029.75 1030.07 1030.40 1030.73 1031.03 1031.31 1031.54 1031.73 1031.85 1031.93 1031.96 1031.95 1031.91
1012.86 1013.30 1013.77 1014.27 1014.81 1015.41 1016.10 1016.90 1017.82 1018.82 1019.89 1020.95 1021.97 1022.90 1023.71 1024.39 1024.95 1025.41 1025.81 1026.18 1026.53 1026.88 1027.24 1027.59 1027.94 1028.26 1028.55 1028.84 1029.11 1029.39 1029.68 1029.99 1030.31 1030.65 1030.97 1031.28 1031.56 1031.79 1031.97 1032.10 1032.19 1032.25 1032.27
1013.14 1013.43 1013.75 1014.11 1014.52 1015.03 1015.65 1016.41 1017.32 1018.34 1019.44 1020.55 1021.61 1022.58 1023.42 1024.12 1024.69 1025.17 1025.58 1025.96 1026.33 1026.71 1027.09 1027.47 1027.84 1028.17 1028.48 1028.75 1029.02 1029.28 1029.56 1029.86 1030.19 1030.53 1030.88 1031.21 1031.51 1031.78 1031.99 1032.17 1032.31 1032.41 1032.48
1013.88 1014.01 1014.15 1014.34 1014.59 1014.96 1015.47 1016.16 1017.02 1018.02 1019.10 1020.21 1021.28 1022.25 1023.09 1023.79 1024.36 1024.84 1025.26 1025.66 1026.05 1026.46 1026.88 1027.29 1027.69 1028.05 1028.37 1028.65 1028.92 1029.18 1029.46 1029.76 1030.08 1030.43 1030.79 1031.13 1031.45 1031.73 1031.97 1032.17 1032.32 1032.45 1032.56
1015.02 1014.98 1014.95 1014.94 1015.02 1015.22 1015.60 1016.18 1016.95 1017.88 1018.91 1019.97 1021.00 1021.93 1022.74 1023.42 1023.98 1024.45 1024.88 1025.30 1025.73 1026.17 1026.63 1027.09 1027.52 1027.91 1028.26 1028.56 1028.83 1029.10 1029.38 1029.69 1030.02 1030.37 1030.73 1031.08 1031.40 1031.68 1031.91 1032.11 1032.27 1032.40 1032.52
1016.43 1016.24 1016.04 1015.85 1015.75 1015.79 1016.01 1016.45 1017.10 1017.92 1018.86 1019.84 1020.79 1021.65 1022.41 1023.04 1023.58 1024.04 1024.48 1024.92 1025.38 1025.88 1026.38 1026.88 1027.35 1027.77 1028.15 1028.47 1028.76 1029.04 1029.33 1029.63 1029.97 1030.32 1030.68 1031.02 1031.33 1031.60 1031.82 1032.00 1032.14 1032.27 1032.38
1017.94 1017.63 1017.28 1016.95 1016.68 1016.57 1016.64 1016.93 1017.45 1018.14 1018.95 1019.81 1020.66 1021.44 1022.12 1022.70 1023.20 1023.66 1024.10 1024.57 1025.06 1025.59 1026.14 1026.67 1027.18 1027.63 1028.02 1028.36 1028.67 1028.96 1029.25 1029.56 1029.89 1030.24 1030.59 1030.92 1031.21 1031.46 1031.66 1031.82 1031.95 1032.07 1032.18
1019.37 1018.99 1018.54 1018.09 1017.71 1017.46 1017.41 1017.56 1017.94 1018.49 1019.17 1019.90 1020.63 1021.30 1021.90 1022.43 1022.89 1023.33 1023.78 1024.25 1024.77 1025.32 1025.89 1026.45 1026.98 1027.44 1027.85 1028.20 1028.50 1028.80 1029.09 1029.40 1029.73 1030.07 1030.41 1030.72 1031.00 1031.24 1031.42 1031.57 1031.70 1031.81 1031.93
1020.62 1020.20 1019.70 1019.19 1018.73 1018.40 1018.24 1018.29 1018.54 1018.95 1019.49 1020.09 1020.69 1021.26 1021.77 1022.23 1022.65 1023.07 1023.51 1023.98 1024.50 1025.06 1025.63 1026.19 1026.71 1027.17 1027.57 1027.92 1028.22 1028.51 1028.80 1029.10 1029.43 1029.76 1030.10 1030.41 1030.68 1030.91 1031.09 1031.24 1031.37 1031.50 1031.64
1021.63 1021.22 1020.72 1020.19 1019.71 1019.33 1019.11 1019.06 1019.21 1019.51 1019.91 1020.38 1020.86 1021.32 1021.75 1022.13 1022.50 1022.88 1023.29 1023.75 1024.25 1024.78 1025.33 1025.86 1026.35 1026.79 1027.17 1027.50 1027.79 1028.07 1028.36 1028.66 1028.98 1029.32 1029.65 1029.96 1030.23 1030.46 1030.66 1030.82 1030.97 1031.12 1031.29
1022.46 1022.08 1021.61 1021.11 1020.64 1020.25 1020.00 1019.89 1019.95 1020.15 1020.43 1020.78 1021.14 1021.49 1021.82 1022.13 1022.44 1022.77 1023.13 1023.54 1024.00 1024.48 1024.98 1025.46 1025.90 1026.30 1026.65 1026.95 1027.23 1027.50 1027.79 1028.09 1028.42 1028.75 1029.09 1029.40 1029.68 1029.92 1030.13 1030.31 1030.49 1030.67 1030.87
1023.21 1022.88 1022.47 1022.02 1021.59 1021.22 1020.95 1020.81 1020.79 1020.89 1021.07 1021.29 1021.54 1021.78 1022.01 1022.24 1022.47 1022.74 1023.04 1023.38 1023.77 1024.18 1024.60 1025.01 1025.40 1025.74 1026.05 1026.32 1026.59 1026.86 1027.14 1027.45 1027.78 1028.12 1028.46 1028.77 1029.05 1029.30 1029.52 1029.72 1029.91 1030.11 1030.34
1023.99 1023.72 1023.38 1022.99 1022.61 1022.27 1022.01 1021.83 1021.76 1021.76 1021.84 1021.95 1022.08 1022.21 1022.34 1022.48 1022.63 1022.81 1023.03 1023.29 1023.59 1023.92 1024.26 1024.59 1024.90 1025.18 1025.44 1025.69 1025.95 1026.21 1026.50 1026.81 1027.14 1027.48 1027.81 1028.12 1028.39 1028.63 1028.84 1029.03 1029.22 1029.43 1029.66
1024.90 1024.69 1024.41 1024.09 1023.77 1023.46 1023.20 1022.99 1022.86 1022.78 1022.75 1022.75 1022.77 1022.79 1022.82 1022.87 1022.93 1023.03 1023.16 1023.33 1023.54 1023.77 1024.01 1024.25 1024.49 1024.71 1024.93 1025.15 1025.38 1025.64 1025.92 1026.23 1026.56 1026.88 1027.19 1027.47 1027.71 1027.92 1028.10 1028.26 1028.42 1028.61 1028.82
1025.96 1025.80 1025.58 1025.33 1025.05 1024.77 1024.51 1024.28 1024.09 1023.94 1023.81 1023.70 1023.61 1023.54 1023.47 1023.42 1023.41 1023.42 1023.47 1023.55 1023.66 1023.79 1023.94 1024.09 1024.25 1024.40 1024.57 1024.75 1024.96 1025.20 1025.47 1025.76 1026.06 1026.35 1026.62 1026.85 1027.04 1027.19 1027.30 1027.41 1027.52 1027.65 1027.81
1027.12 1027.01 1026.85 1026.65 1026.42 1026.17 1025.91 1025.66 1025.42 1025.19 1024.97 1024.78 1024.59 1024.43 1024.28 1024.16 1024.06 1024.00 1023.97 1023.97 1023.99 1024.04 1024.09 1024.16 1024.23 1024.32 1024.42 1024.56 1024.73 1024.93 1025.16 1025.42 1025.67 1025.90 1026.11 1026.27 1026.38 1026.44 1026.47 1026.50 1026.53 1026.59 1026.69
1028.28 1028.21 1028.11 1027.97 1027.78 1027.56 1027.30 1027.03 1026.75 1026.47 1026.19 1025.92 1025.67 1025.43 1025.22 1025.04 1024.89 1024.77 1024.67 1024.60 1024.55 1024.51 1024.48 1024.46 1024.45 1024.47 1024.50 1024.57 1024.68 1024.83 1025.00 1025.19 1025.37 1025.53 1025.65 1025.72 1025.74 1025.71 1025.65 1025.57 1025.52 1025.49 1025.52
1029.31 1029.30 1029.26 1029.16 1029.02 1028.83 1028.59 1028.32 1028.02 1027.70 1027.38 1027.07 1026.76 1026.49 1026.23 1026.01 1025.83 1025.67 1025.53 1025.41 1025.29 1025.19 1025.08 1024.98 1024.89 1024.82 1024.77 1024.76 1024.80 1024.86 1024.96 1025.06 1025.16 1025.24 1025.26 1025.24 1025.16 1025.03 1024.87 1024.71 1024.56 1024.45 1024.40
1030.14 1030.18 1030.18 1030.14 1030.04 1029.89 1029.68 1029.43 1029.13 1028.81 1028.47 1028.14 1027.82 1027.52 1027.25 1027.02 1026.81 1026.63 1026.46 1026.30 1026.14 1025.97 1025.80 1025.63 1025.46 1025.30 1025.17 1025.08 1025.02 1025.00 1025.01 1025.02 1025.03 1025.01 1024.95 1024.84 1024.67 1024.46 1024.22 1023.97 1023.74 1023.56 1023.43
1030.72 1030.80 1030.85 1030.86 1030.81 1030.70 1030.54 1030.31 1030.04 1029.74 1029.41 1029.09 1028.77 1028.48 1028.21 1027.97 1027.76 1027.57 1027.38 1027.20 1027.00 1026.79 1026.56 1026.32 1026.08 1025.85 1025.64 1025.46 1025.32 1025.21 1025.12 1025.05 1024.98 1024.88 1024.75 1024.57 1024.33 1024.06 1023.75 1023.44 1023.14 1022.88 1022.69
1031.08 1031.19 1031.28 1031.34 1031.33 1031.28 1031.15 1030.98 1030.74 1030.48 1030.18 1029.88 1029.59 1029.31 1029.05 1028.82 1028.61 1028.41 1028.22 1028.01 1027.79 1027.54 1027.27 1026.98 1026.68 1026.39 1026.11 1025.86 1025.64 1025.45 1025.30 1025.16 1025.02 1024.86 1024.68 1024.45 1024.17 1023.86 1023.51 1023.15 1022.80 1022.48 1022.21
1031.31 1031.44 1031.55 1031.63 1031.67 1031.65 1031.58 1031.45 1031.27 1031.04 1030.79 1030.52 1030.25 1029.99 1029.75 1029.53 1029.32 1029.11 1028.91 1028.69 1028.44 1028.17 1027.87 1027.54 1027.20 1026.86 1026.54 1026.24 1025.97 1025.73 1025.52 1025.33 1025.16 1024.97 1024.75 1024.50 1024.21 1023.88 1023.51 1023.12 1022.73 1022.35 1022.01
1031.50 1031.63 1031.75 1031.84 1031.90 1031.92 1031.88 1031.79 1031.65 1031.47 1031.25 1031.02 1030.78 1030.53 1030.30 1030.08 1029.87 1029.65 1029.43 1029.19 1028.93 1028.64 1028.32 1027.98 1027.62 1027.26 1026.91 1026.58 1026.28 1026.01 1025.78 1025.58 1025.38 1025.18 1024.96 1024.72 1024.43 1024.10 1023.73 1023.32 1022.90 1022.47 1022.05
1031.73 1031.84 1031.95 1032.04 1032.11 1032.14 1032.13 1032.07 1031.96 1031.81 1031.62 1031.41 1031.19 1030.96 1030.73 1030.50 1030.27 1030.04 1029.80 1029.55 1029.27 1028.96 1028.63 1028.28 1027.92 1027.55 1027.20 1026.87 1026.57 1026.30 1026.06 1025.86 1025.66 1025.47 1025.26 1025.03 1024.76 1024.45 1024.08 1023.67 1023.23 1022.75 1022.26
1032.04 1032.13 1032.21 1032.29 1032.34 1032.37 1032.36 1032.31 1032.22 1032.09 1031.92 1031.72 1031.51 1031.28 1031.05 1030.81 1030.56 1030.31 1030.05 1029.78 1029.48 1029.16 1028.83 1028.48 1028.12 1027.77 1027.43 1027.10 1026.81 1026.56 1026.33 1026.13 1025.95 1025.77 1025.58 1025.37 1025.12 1024.83 1024.48 1024.07 1023.61 1023.10 1022.56
Thickness
5540 5540 5540 5539 5539 5539 5539 5539 5539 5538 5538 5537 5536 5535 5534 5534 5534 5533 5534 5534 5535 5536 5536 5537 5538 5539 5540 5541 5543 5544 5545 5546 5549 5551 5553 5556 5558 5559 5561 5562 5564 5565 5567
5528 5529 5529 5529 5529 5529 5529 5529 5528 5528 5528 5527 5526 5524 5523 5522 5522 5522 5522 5522 5523 5524 5525 5526 5526 5527 5528 5529 5531 5532 5533 5534 5536 5538 5540 5543 5546 5548 5551 5551 5553 5554 5555
5517 5517 5517 5517 5517 5518 5518 5519 5519 5518 5517 5516 5514 5513 5511 5510 5509 5509 5510 5510 5511 5512 5513 5514 5515 5516 5517 5518 5519 5521 5522 5522 5523 5526 5528 5530 5534 5535 5539 5540 5542 5543 5544
5506 5506 5507 5507 5507 5508 5508 5508 5508 5507 5506 5505 5504 5503 5502 5501 5500 5499 5498 5498 5499 5500 5501 5501 5503 5504 5505 5506 5507 5509 5511 5512 5513 5514 5516 5518 5520 5521 5525 5529 5530 5532 5533
5495 5497 5498 5498 5498 5497 5497 5496 5496 5495 5495 5494 5493 5492 5491 5490 5488 5488 5487 5487 5488 5488 5489 5490 5491 5492 5493 5494 5496 5497 5499 5501 5503 5504 5504 5505 5506 5509 5511 5516 5518 5519 5522
5484 5485 5487 5486 5485 5485 5485 5484 5484 5484 5483 5482 5481 5481 5480 5479 5477 5476 5476 5476 5476 5476 5477 5478 5479 5480 5482 5484 5485 5486 5488 5490 5491 5493 5494 5495 5496 5498 5499 5501 5504 5506 5510
5472 5473 5473 5473 5473 5473 5472 5472 5472 5472 5471 5470 5469 5469 5468 5468 5467 5466 5466 5465 5465 5465 5466 5466 5467 5469 5471 5473 5475 5476 5477 5479 5480 5482 5483 5485 5486 5487 5488 5489 5491 5493 5497
5459 5460 5460 5461 5461 5461 5460 5461 5461 5460 5460 5459 5458 5457 5457 5456 5456 5455 5454 5455 5455 5456 5456 5456 5457 5458 5460 5462 5464 5465 5467 5468 5469 5471 5472 5473 5475 5476 5478 5478 5478 5480 5485
5446 5447 5447 5447 5447 5448 5449 5449 5450 5449 5448 5447 5447 5446 5445 5444 5444 5443 5444 5444 5445 5445 5446 5446 5447 5448 5450 5451 5453 5454 5455 5456 5458 5460 5461 5462 5464 5465 5466 5467 5467 5468 5472
5434 5433 5432 5433 5434 5434 5435 5436 5437 5437 5436 5435 5435 5435 5433 5433 5432 5432 5432 5433 5434 5435 5435 5436 5437 5438 5439 5441 5442 5444 5445 5445 5447 5448 5449 5450 5452 5453 5454 5455 5456 5457 5458
5417 5418 5419 5420 5421 5421 5422 5423 5424 5424 5424 5423 5423 5423 5422 5421 5420 5420 5421 5422 5423 5424 5425 5426 5427 5428 5429 5430 5431 5432 5434 5435 5436 5437 5438 5439 5440 5441 5442 5443 5444 5445 5446
5404 5404 5405 5406 5408 5409 5409 5410 5411 5411 5411 5411 5411 5410 5410 5409 5409 5409 5410 5411 5412 5413 5414 5415 5417 5417 5418 5419 5420 5422 5423 5424 5425 5426 5426 5427 5428 5429 5430 5431 5432 5433 5434
5390 5391 5392 5393 5394 5395 5396 5397 5398 5398 5398 5399 5399 5398 5398 5398 5398 5398 5399 5400 5400 5401 5402 5404 5405 5406 5407 5408 5409 5410 5412 5413 5414 5415 5415 5416 5416 5418 5418 5419 5420 5421 5423
5377 5378 5379 5380 5381 5382 5383 5384 5385 5385 5386 5386 5386 5386 5387 5387 5387 5388 5388 5388 5388 5389 5391 5392 5394 5396 5397 5397 5398 5399 5400 5401 5402 5403 5404 5405 5405 5406 5407 5408 5408 5408 5409
5367 5367 5367 5367 5368 5369 5370 5371 5372 5373 5373 5373 5374 5374 5375 5375 5375 5376 5376 5376 5377 5378 5379 5380 5382 5383 5384 5386 5387 5388 5388 5389 5390 5391 5391 5393 5393 5394 5395 5396 5397 5396 5396
5354 5355 5356 5356 5357 5358 5359 5360 5360 5360 5360 5361 5361 5361 5362 5362 5363 5364 5364 5365 5366 5367 5367 5368 5370 5371 5372 5374 5375 5375 5376 5377 5378 5378 5379 5380 5381 5382 5383 5384 5385 5385 5385
5342 5344 5344 5345 5346 5347 5348 5348 5349 5349 5348 5348 5349 5349 5349 5350 5351 5352 5352 5353 5354 5355 5356 5357 5357 5358 5359 5360 5362 5363 5363 5364 5365 5365 5366 5367 5368 5369 5369 5370 5372 5372 5373
5330 5332 5332 5335 5336 5336 5337 5338 5337 5337 5337 5337 5337 5337 5338 5338 5339 5340 5340 5341 5342 5343 5344 5345 5345 5346 5346 5347 5349 5350 5350 5351 5351 5352 5352 5353 5354 5355 5356 5357 5358 5359 5360
5317 5319 5321 5323 5325 5326 5327 5327 5327 5326 5326 5326 5326 5326 5326 5327 5327 5328 5328 5329 5330 5331 5331 5332 5332 5333 5334 5334 5336 5337 5336 5337 5338 5338 5339 5340 5341 5343 5344 5344 5345 5345 5346
5308 5309 5310 5311 5313 5314 5315 5315 5315 5315 5315 5316 5316 5315 5315 5315 5315 5316 5316 5317 5318 5318 5319 5319 5319 5319 5320 5322 5323 5324 5324 5324 5325 5325 5326 5327 5329 5330 5331 5331 5331 5332 5332
5299 5299 5299 5301 5302 5303 5304 5304 5304 5304 5305 5305 5305 5305 5304 5304 5304 5304 5305 5305 5305 5305 5306 5306 5306 5306 5307 5309 5311 5312 5311 5311 5311 5311 5312 5313 5315 5317 5318 5319 5318 5319 5319
5289 5289 5289 5290 5291 5292 5292 5293 5293 5294 5294 5294 5294 5294 5294 5294 5294 5293 5293 5293 5293 5293 5293 5293 5293 5294 5294 5296 5298 5300 5300 5300 5298 5298 5298 5299 5300 5302 5303 5304 5305 5306 5305
5279 5278 5278 5279 5280 5281 5281 5282 5283 5283 5283 5283 5282 5282 5283 5283 5282 5282 5282 5282 5281 5281 5281 5282 5282 5282 5283 5283 5285 5286 5287 5287 5285 5285 5285 5286 5286 5286 5287 5289 5290 5291 5291
5269 5269 5269 5269 5270 5271 5271 5271 5272 5272 5272 5272 5271 5272 5272 5272 5271 5271 5271 5271 5270 5270 5270 5270 5270 5270 5270 5270 5271 5271 5272 5273 5272 5271 5272 5272 5271 5272 5273 5274 5275 5275 5277
5259 5259 5259 5259 5261 5261 5262 5262 5262 5261 5261 5261 5261 5260 5261 5260 5260 5260 5260 5260 5259 5259 5260 5260 5259 5259 5259 5259 5260 5259 5259 5259 5258 5257 5257 5257 5257 5257 5258 5259 5260 5261 5262
5248 5248 5249 5249 5250 5250 5251 5252 5252 5251 5251 5251 5251 5250 5250 5250 5250 5250 5250 5250 5249 5250 5250 5250 5249 5248 5248 5248 5249 5248 5248 5247 5246 5244 5241 5241 5242 5242 5243 5244 5245 5246 5247